LUNDI 15 NOVEMBRE ; MARCHE NORDIQUE ; ETANGS DE ROCHE
On y va... On n'y va pas ? Vu ce temps breton, tout en grisaille et crachin, on a failli annuler !! C'est sur décision de Guy que nous avons soulevé nos fesses du canapé et rejoint les étangs de Roche. Enfin, seulement 8 courageux !! Mais au bout de 10 km, tout le monde a admis qu'on avait vraiment bien fait !! CD
LUNDI 15 NOVEMBRE ; MARCHE DOUCE ; RIVAS
Malgré le temps humide, nous sommes 15 sur le parking de Rivas. Vu le retard de certains, nous décidons de partir pour un aller retour sur Montrond. Finalement nous avons fait le kilométrage initial pour arriver juste à la nuit aux voitures. GC
JEUDI 11 NOVEMBRE ; 1er groupe ; LE PERTUISET
Comme le 2ème groupe, après concertation, nous nous sommes décidés à reprendre le sac à dos et les chaussures de marche pour ce jeudi férié. Départ du Pertuiset et montée sur Gland. Un bon dénivelé, mais du bonheur ensuite sur le plateau. Nous avons pique-niqué à Chambles et nous sommes rentrés par des chemins dans des forêts de feuillus, aux couleurs magnifiques. Nous étions 21, pour 22 km. CD
JEUDI 11 NOVEMBRE ; 2ème groupe ; ST HEAND
Après en avoir un peu discuté et quelques coups de téléphone, nous avons décidé de faire une sortie en ce jour férié. C'est sur les hauteurs de Saint Heand que Jean Pierre nous a emmenés pour un circuit et de beaux panoramas avec vue sur les Alpes. Bref un bel après-midi. GC
MERCREDI 10 NOVEMBRE ; EPIS ; BARRAGES DE ST CHAMOND
L'équipe "petite marche" des Epis, accompagnée de 7 PP, est partie à l'assaut des 2 barrages au-dessus de St Chamond, sous un soleil un peu timide. A midi, repas tiré du sac au bord de l'eau et retour par le chemin des écoliers, bien tranquille. Petit goûter traditionnel ensuite. J.L.D
MERCREDI 10 NOVEMBRE ; MARCHE COOL COOL ; LE CHAMBON
C'est parti à 13h30 pour la voie verte du Chambon ; 8 PP adultes plus 2 plus jeunes ( l'avenir) et aussi 2 à 4 pattes. Après des tours et des contours, nous bouclons nos 6 km en passant par Gaffard et la Malafolie. Le Stan
MARDI 9 NOVEMBRE ; CHAMBLES
42 PP à CHAMBLES, emmené par Jean François, sous le soleil. Coco
LUNDI 8 NOVEMBRE ; MARCHE NORDIQUE ; ROCHETAILLEE
14 PP, lundi, au départ de Rochetaillée, jusqu'aux 2 barrages. Soit 12 km.
LUNDI 8 NOVEMBRE ; MARCHE DOUCE ; LE PERTUISET
Marche douce, lundi, avec Hélène. Départ du parking de la Noierie, au Pertuiset.
/image%2F0724814%2F20211116%2Fob_fecb14_image0000001-2.jpg)
/image%2F0724814%2F20211116%2Fob_e6307b_image0000001-3.jpg)
/image%2F0724814%2F20211115%2Fob_a63b30_20211115-140144.jpg)
/image%2F0724814%2F20211115%2Fob_1f620d_20211115-140149.jpg)
/image%2F0724814%2F20211115%2Fob_ff850f_20211115-145300.jpg)
/image%2F0724814%2F20211115%2Fob_12c615_20211115-160619.jpg)
/image%2F0724814%2F20211115%2Fob_20ade8_img20211115143958.jpg)
/image%2F0724814%2F20211115%2Fob_3f7588_img20211115151257.jpg)
/image%2F0724814%2F20211115%2Fob_331930_img20211115153531.jpg)
/image%2F0724814%2F20211115%2Fob_d4cf51_img20211115153604.jpg)
/image%2F0724814%2F20211115%2Fob_fd99a5_img20211115160948.jpg)
/image%2F0724814%2F20211112%2Fob_9abf5a_20211111-082514.jpg)
/image%2F0724814%2F20211112%2Fob_5681a9_20211111-093422.jpg)
/image%2F0724814%2F20211112%2Fob_7b18f4_20211111-125651.jpg)
/image%2F0724814%2F20211114%2Fob_e4ff11_20211111-084008.jpg)
/image%2F0724814%2F20211114%2Fob_af902c_20211111-091900.jpg)
/image%2F0724814%2F20211114%2Fob_56b2bd_20211111-125346.jpg)
/image%2F0724814%2F20211114%2Fob_5d3354_20211111-125353.jpg)
/image%2F0724814%2F20211114%2Fob_dbb10a_20211111-125636.jpg)
/image%2F0724814%2F20211114%2Fob_bbb97c_20211111-151817.jpg)
/image%2F0724814%2F20211114%2Fob_aa92e9_20211111-152017.jpg)
/image%2F0724814%2F20211114%2Fob_b4f8c0_20211111-154419.jpg)
/image%2F0724814%2F20211114%2Fob_4945ff_20211111-154744.jpg)
/image%2F0724814%2F20211114%2Fob_bcd064_20211111-155107.jpg)
/image%2F0724814%2F20211112%2Fob_b3401f_img-20211111-135559.jpg)
/image%2F0724814%2F20211112%2Fob_3ec1d5_img-20211111-140616.jpg)
/image%2F0724814%2F20211112%2Fob_a72399_img-20211111-140640.jpg)
/image%2F0724814%2F20211112%2Fob_42ed1a_img-20211111-151431.jpg)
/image%2F0724814%2F20211112%2Fob_e60855_img-20211111-152107.jpg)
/image%2F0724814%2F20211112%2Fob_84a31e_img-20211111-163641.jpg)
/image%2F0724814%2F20211112%2Fob_9ffe7a_img-20211112-102816.jpg)
/image%2F0724814%2F20211112%2Fob_1fb0bc_img20211111140630.jpg)
/image%2F0724814%2F20211112%2Fob_69c501_img20211111141435.jpg)
/image%2F0724814%2F20211112%2Fob_984eb1_img20211111143638.jpg)
/image%2F0724814%2F20211112%2Fob_fdf189_img20211111160627.jpg)
/image%2F0724814%2F20211112%2Fob_e1efcb_img20211111165700.jpg)
/image%2F0724814%2F20211110%2Fob_39130e_20211110-142423.jpg)
/image%2F0724814%2F20211110%2Fob_87df77_20211110-122205.jpg)
/image%2F0724814%2F20211110%2Fob_7922b2_20211110-142417.jpg)
/image%2F0724814%2F20211110%2Fob_d4807b_20211110-121431.jpg)
/image%2F0724814%2F20211110%2Fob_afe623_20211110-122429.jpg)
/image%2F0724814%2F20211110%2Fob_4723d1_20211110-141518.jpg)
/image%2F0724814%2F20211110%2Fob_5b266c_20211110-134657.jpg)
/image%2F0724814%2F20211110%2Fob_272b27_20211110-105340.jpg)
/image%2F0724814%2F20211110%2Fob_927d75_20211110-105328.jpg)
/image%2F0724814%2F20211110%2Fob_c5bb24_20211110-113000.jpg)
/image%2F0724814%2F20211110%2Fob_3fe301_20211110-112944.jpg)
/image%2F0724814%2F20211110%2Fob_093e24_20211110-105348.jpg)
/image%2F0724814%2F20211110%2Fob_6c7787_img20211110144033-1.jpg)
/image%2F0724814%2F20211110%2Fob_4a5037_20211109-135710.jpg)
/image%2F0724814%2F20211110%2Fob_142e92_20211109-143909.jpg)
/image%2F0724814%2F20211110%2Fob_a4e527_20211109-160405.jpg)
/image%2F0724814%2F20211110%2Fob_655b8d_20211109-162433.jpg)
/image%2F0724814%2F20211109%2Fob_88d130_image-2021-11-09-115736.png)
/image%2F0724814%2F20211109%2Fob_af3642_img-20211108-154914.jpg)
/image%2F0724814%2F20211109%2Fob_f8e2bc_img-20211108-154226.jpg)